Location: Newark
(35.6799°N, 139.7636°E)
Time: 18:17:58
(UTC+00:00)

Explorer 7 - Pass Details

Date: 07 December 2019
Orbit: 485 x 679 km, 50.3° (Epoch: 24 January)

Event Time Altitude Azimuth Distance (km) Brightness Sun altitude
Rises 06:32:34 0° 212° (SSW) 2,955 12.0 8.6°
Reaches altitude 10° 06:34:56 10° 207° (SSW) 2,068 11.1 8.2°
Maximum altitude 06:39:31 46° 134° (SE) 897 7.9 7.5°
Drops below altitude 10° 06:44:13 10° 61° (ENE) 2,116 9.2 6.7°
Sets 06:46:40 0° 56° (NE) 3,031 9.9 6.3°
